Time,TemperatureF,DewpointF,PressureIn,WindDirection,WindDirectionDegrees,WindSpeedMPH,WindSpeedGustMPH,Humidity,HourlyPrecipIn,Conditions,Clouds,dailyrainin,SoftwareType,DateUTC
2013-05-07 00:02:00,59.8,55.0,29.96,ESE,121,0.0,22.0,84,0.00,,,0.00,Wunderground v.1.15,2013-05-07 05:02:00,
2013-05-07 00:08:00,59.9,55.1,29.96,ESE,121,0.0,22.0,84,0.00,,,0.00,Wunderground v.1.15,2013-05-07 05:08:00,
2013-05-07 00:13:00,59.9,55.1,29.96,ESE,121,0.0,22.0,84,0.00,,,0.00,Wunderground v.1.15,2013-05-07 05:13:00,
2013-05-07 00:18:00,59.9,55.1,29.95,ESE,121,0.0,22.0,84,0.00,,,0.00,Wunderground v.1.15,2013-05-07 05:18:00,
2013-05-07 00:23:00,59.8,55.0,29.96,ESE,121,0.0,22.0,84,0.00,,,0.00,Wunderground v.1.15,2013-05-07 05:23:00,
2013-05-07 00:28:00,59.7,54.9,29.95,ESE,121,0.0,22.0,84,0.00,,,0.00,Wunderground v.1.15,2013-05-07 05:28:00,
2013-05-07 00:34:00,59.6,54.8,29.95,ESE,121,0.0,22.0,84,0.00,,,0.00,Wunderground v.1.15,2013-05-07 05:34:00,
2013-05-07 00:39:00,59.4,54.6,29.95,ESE,121,0.0,22.0,84,0.00,,,0.00,Wunderground v.1.15,2013-05-07 05:39:00,
2013-05-07 00:44:00,59.3,54.8,29.95,ESE,121,0.0,22.0,85,0.00,,,0.00,Wunderground v.1.15,2013-05-07 05:44:00,
2013-05-07 00:49:00,59.3,54.8,29.95,ESE,121,0.0,22.0,85,0.00,,,0.00,Wunderground v.1.15,2013-05-07 05:49:00,
2013-05-07 00:54:00,59.3,54.8,29.95,ESE,121,0.0,22.0,85,0.00,,,0.00,Wunderground v.1.15,2013-05-07 05:54:00,
2013-05-07 01:00:00,59.4,54.9,29.95,ESE,121,0.0,22.0,85,0.00,,,0.00,Wunderground v.1.15,2013-05-07 06:00:00,
2013-05-07 01:05:00,59.3,54.8,29.95,ESE,121,0.0,22.0,85,0.00,,,0.00,Wunderground v.1.15,2013-05-07 06:05:00,
2013-05-07 01:10:00,59.1,54.6,29.95,ESE,121,0.0,22.0,85,0.00,,,0.00,Wunderground v.1.15,2013-05-07 06:10:00,
2013-05-07 01:15:00,59.1,54.9,29.95,ESE,121,0.0,22.0,86,0.00,,,0.00,Wunderground v.1.15,2013-05-07 06:15:00,
2013-05-07 01:20:00,58.9,55.0,29.95,ESE,121,0.0,22.0,87,0.00,,,0.00,Wunderground v.1.15,2013-05-07 06:20:00,
2013-05-07 01:25:00,58.8,54.9,29.95,ESE,121,0.0,22.0,87,0.00,,,0.00,Wunderground v.1.15,2013-05-07 06:25:00,
2013-05-07 01:30:00,58.7,54.8,29.94,ESE,121,0.0,22.0,87,0.00,,,0.00,Wunderground v.1.15,2013-05-07 06:30:00,
2013-05-07 01:36:00,58.7,54.8,29.94,ESE,121,0.0,22.0,87,0.00,,,0.00,Wunderground v.1.15,2013-05-07 06:36:00,
2013-05-07 01:41:00,58.8,54.9,29.94,ESE,121,0.0,22.0,87,0.00,,,0.00,Wunderground v.1.15,2013-05-07 06:41:00,
2013-05-07 01:46:00,58.7,54.8,29.94,ESE,121,0.0,22.0,87,0.00,,,0.00,Wunderground v.1.15,2013-05-07 06:46:00,
2013-05-07 01:51:00,58.7,54.8,29.94,ESE,121,0.0,22.0,87,0.00,,,0.00,Wunderground v.1.15,2013-05-07 06:51:00,
2013-05-07 01:56:00,58.9,55.0,29.94,ESE,121,0.0,22.0,87,0.00,,,0.00,Wunderground v.1.15,2013-05-07 06:56:00,
2013-05-07 02:02:00,59.0,55.1,29.94,ESE,121,0.0,22.0,87,0.00,,,0.00,Wunderground v.1.15,2013-05-07 07:02:00,
2013-05-07 02:07:00,59.3,55.4,29.94,ESE,121,0.0,22.0,87,0.00,,,0.00,Wunderground v.1.15,2013-05-07 07:07:00,
2013-05-07 02:12:00,59.4,55.2,29.94,ESE,121,0.0,22.0,86,0.00,,,0.00,Wunderground v.1.15,2013-05-07 07:12:00,
2013-05-07 02:17:00,59.3,55.1,29.94,ESE,121,0.0,22.0,86,0.00,,,0.00,Wunderground v.1.15,2013-05-07 07:17:00,
2013-05-07 02:22:00,59.3,55.1,29.94,ESE,121,0.0,22.0,86,0.00,,,0.00,Wunderground v.1.15,2013-05-07 07:22:00,
2013-05-07 02:28:00,59.3,55.1,29.94,ESE,121,0.0,22.0,86,0.00,,,0.00,Wunderground v.1.15,2013-05-07 07:28:00,
2013-05-07 02:33:00,59.2,55.0,29.94,ESE,121,0.0,22.0,86,0.00,,,0.00,Wunderground v.1.15,2013-05-07 07:33:00,
2013-05-07 02:38:00,59.1,54.9,29.94,ESE,121,0.0,22.0,86,0.00,,,0.00,Wunderground v.1.15,2013-05-07 07:38:00,
2013-05-07 02:43:00,58.9,54.7,29.94,ESE,121,0.0,22.0,86,0.00,,,0.00,Wunderground v.1.15,2013-05-07 07:43:00,
2013-05-07 02:48:00,58.7,54.8,29.94,ESE,121,0.0,22.0,87,0.00,,,0.00,Wunderground v.1.15,2013-05-07 07:48:00,
2013-05-07 02:54:00,58.4,54.5,29.94,ESE,121,0.0,22.0,87,0.00,,,0.00,Wunderground v.1.15,2013-05-07 07:54:00,
2013-05-07 02:59:00,58.3,54.8,29.94,ESE,121,0.0,22.0,88,0.00,,,0.00,Wunderground v.1.15,2013-05-07 07:59:00,
2013-05-07 03:04:00,58.1,54.6,29.94,ESE,121,0.0,22.0,88,0.00,,,0.00,Wunderground v.1.15,2013-05-07 08:04:00,
2013-05-07 03:09:00,58.1,54.6,29.95,ESE,121,0.0,22.0,88,0.00,,,0.00,Wunderground v.1.15,2013-05-07 08:09:00,
2013-05-07 03:14:00,58.0,54.5,29.95,ESE,121,0.0,22.0,88,0.00,,,0.00,Wunderground v.1.15,2013-05-07 08:14:00,
2013-05-07 03:20:00,57.8,54.3,29.95,ESE,121,0.0,22.0,88,0.00,,,0.00,Wunderground v.1.15,2013-05-07 08:20:00,
2013-05-07 03:25:00,57.8,54.6,29.95,ESE,121,0.0,22.0,89,0.00,,,0.00,Wunderground v.1.15,2013-05-07 08:25:00,
2013-05-07 03:30:00,58.0,54.8,29.95,ESE,121,0.0,22.0,89,0.00,,,0.00,Wunderground v.1.15,2013-05-07 08:30:00,
2013-05-07 03:35:00,58.0,54.8,29.95,ESE,121,0.0,22.0,89,0.00,,,0.00,Wunderground v.1.15,2013-05-07 08:35:00,
2013-05-07 03:40:00,57.8,54.6,29.95,ESE,121,0.0,22.0,89,0.00,,,0.00,Wunderground v.1.15,2013-05-07 08:40:00,
2013-05-07 03:45:00,57.7,54.5,29.95,ESE,121,0.0,22.0,89,0.00,,,0.00,Wunderground v.1.15,2013-05-07 08:45:00,
2013-05-07 03:50:00,57.6,54.4,29.95,ESE,121,0.0,22.0,89,0.00,,,0.00,Wunderground v.1.15,2013-05-07 08:50:00,
2013-05-07 03:55:00,57.4,54.2,29.95,ESE,121,0.0,22.0,89,0.00,,,0.00,Wunderground v.1.15,2013-05-07 08:55:00,
2013-05-07 04:00:00,57.4,54.2,29.95,ESE,121,0.0,22.0,89,0.00,,,0.00,Wunderground v.1.15,2013-05-07 09:00:00,
2013-05-07 04:05:00,57.3,54.1,29.95,ESE,121,0.0,22.0,89,0.00,,,0.00,Wunderground v.1.15,2013-05-07 09:05:00,
2013-05-07 04:11:00,57.3,54.4,29.95,ESE,121,0.0,22.0,90,0.00,,,0.00,Wunderground v.1.15,2013-05-07 09:11:00,
2013-05-07 04:16:00,57.3,54.4,29.95,ESE,121,0.0,22.0,90,0.00,,,0.00,Wunderground v.1.15,2013-05-07 09:16:00,
2013-05-07 04:21:00,57.1,54.2,29.95,ESE,121,0.0,22.0,90,0.00,,,0.00,Wunderground v.1.15,2013-05-07 09:21:00,
2013-05-07 04:26:00,57.1,54.2,29.95,ESE,121,0.0,22.0,90,0.00,,,0.00,Wunderground v.1.15,2013-05-07 09:26:00,
2013-05-07 04:31:00,57.0,54.1,29.95,ESE,121,0.0,22.0,90,0.00,,,0.00,Wunderground v.1.15,2013-05-07 09:31:00,
2013-05-07 04:36:00,57.0,54.1,29.95,ESE,121,0.0,22.0,90,0.00,,,0.00,Wunderground v.1.15,2013-05-07 09:36:00,
2013-05-07 04:42:00,56.9,54.0,29.96,ESE,121,0.0,22.0,90,0.00,,,0.00,Wunderground v.1.15,2013-05-07 09:42:00,
2013-05-07 04:47:00,56.8,53.9,29.96,ESE,121,0.0,22.0,90,0.00,,,0.00,Wunderground v.1.15,2013-05-07 09:47:00,
2013-05-07 04:52:00,56.7,53.8,29.96,ESE,121,0.0,22.0,90,0.00,,,0.00,Wunderground v.1.15,2013-05-07 09:52:00,
2013-05-07 04:57:00,56.7,54.1,29.96,ESE,121,0.0,22.0,91,0.00,,,0.00,Wunderground v.1.15,2013-05-07 09:57:00,
2013-05-07 05:02:00,56.7,53.8,29.96,ESE,121,0.0,22.0,90,0.00,,,0.00,Wunderground v.1.15,2013-05-07 10:02:00,
2013-05-07 05:08:00,56.6,53.7,29.96,ESE,121,0.0,22.0,90,0.00,,,0.00,Wunderground v.1.15,2013-05-07 10:08:00,
2013-05-07 05:13:00,56.5,53.6,29.96,ESE,121,0.0,22.0,90,0.00,,,0.00,Wunderground v.1.15,2013-05-07 10:13:00,
2013-05-07 05:18:00,56.4,53.5,29.97,ESE,103,0.0,22.0,90,0.00,,,0.00,Wunderground v.1.15,2013-05-07 10:18:00,
2013-05-07 05:23:00,56.5,53.6,29.96,East,96,1.0,22.0,90,0.00,,,0.00,Wunderground v.1.15,2013-05-07 10:23:00,
2013-05-07 05:28:00,56.7,53.8,29.97,East,96,2.0,22.0,90,0.00,,,0.00,Wunderground v.1.15,2013-05-07 10:28:00,
2013-05-07 05:34:00,56.7,53.8,29.97,East,96,2.0,22.0,90,0.00,,,0.00,Wunderground v.1.15,2013-05-07 10:34:00,
2013-05-07 05:39:00,56.5,53.6,29.97,East,96,1.0,22.0,90,0.00,,,0.00,Wunderground v.1.15,2013-05-07 10:39:00,
2013-05-07 05:44:00,56.3,53.4,29.97,East,96,1.0,22.0,90,0.00,,,0.00,Wunderground v.1.15,2013-05-07 10:44:00,
2013-05-07 05:49:00,56.3,53.4,29.97,East,96,1.0,22.0,90,0.00,,,0.00,Wunderground v.1.15,2013-05-07 10:49:00,
2013-05-07 05:54:00,56.0,53.1,29.97,East,96,2.0,22.0,90,0.00,,,0.00,Wunderground v.1.15,2013-05-07 10:54:00,
2013-05-07 06:00:00,55.8,53.2,29.97,East,96,3.0,22.0,91,0.00,,,0.00,Wunderground v.1.15,2013-05-07 11:00:00,
2013-05-07 06:05:00,55.6,53.0,29.97,East,96,3.0,22.0,91,0.00,,,0.00,Wunderground v.1.15,2013-05-07 11:05:00,
2013-05-07 06:10:00,55.3,52.7,29.97,East,96,3.0,22.0,91,0.00,,,0.00,Wunderground v.1.15,2013-05-07 11:10:00,
2013-05-07 06:15:00,55.1,52.5,29.98,East,91,4.0,22.0,91,0.00,,,0.00,Wunderground v.1.15,2013-05-07 11:15:00,
2013-05-07 06:20:00,55.4,53.1,29.98,East,91,4.0,4.0,92,0.00,,,0.00,Wunderground v.1.15,2013-05-07 11:20:00,
2013-05-07 06:26:00,55.4,53.1,29.98,East,91,3.0,22.0,92,0.00,,,0.00,Wunderground v.1.15,2013-05-07 11:26:00,
2013-05-07 06:31:00,55.6,53.3,29.98,East,91,3.0,22.0,92,0.00,,,0.00,Wunderground v.1.15,2013-05-07 11:31:00,
2013-05-07 06:36:00,55.9,53.6,29.98,ENE,71,3.0,22.0,92,0.00,,,0.00,Wunderground v.1.15,2013-05-07 11:36:00,
2013-05-07 06:41:00,56.2,53.9,29.98,ENE,68,4.0,22.0,92,0.00,,,0.00,Wunderground v.1.15,2013-05-07 11:41:00,
2013-05-07 06:46:00,56.5,54.2,29.98,ENE,68,4.0,22.0,92,0.00,,,0.00,Wunderground v.1.15,2013-05-07 11:46:00,
2013-05-07 06:52:00,56.8,54.5,29.98,ENE,68,3.0,22.0,92,0.00,,,0.00,Wunderground v.1.15,2013-05-07 11:52:00,
2013-05-07 06:57:00,57.1,54.8,29.99,ENE,68,2.0,22.0,92,0.00,,,0.00,Wunderground v.1.15,2013-05-07 11:57:00,
2013-05-07 07:02:00,57.3,55.0,29.98,ENE,68,1.0,22.0,92,0.00,,,0.00,Wunderground v.1.15,2013-05-07 12:02:00,
2013-05-07 07:07:00,57.4,55.1,29.99,ENE,68,1.0,22.0,92,0.00,,,0.00,Wunderground v.1.15,2013-05-07 12:07:00,
2013-05-07 07:12:00,57.6,55.3,29.99,ENE,68,2.0,22.0,92,0.00,,,0.00,Wunderground v.1.15,2013-05-07 12:12:00,
2013-05-07 07:18:00,57.8,55.2,29.98,ENE,68,2.0,22.0,91,0.00,,,0.00,Wunderground v.1.15,2013-05-07 12:18:00,
2013-05-07 07:23:00,58.3,55.7,29.98,ENE,68,2.0,22.0,91,0.00,,,0.00,Wunderground v.1.15,2013-05-07 12:23:00,
2013-05-07 07:28:00,58.9,56.0,29.99,ENE,70,4.0,22.0,90,0.00,,,0.00,Wunderground v.1.15,2013-05-07 12:28:00,
2013-05-07 07:33:00,59.4,55.8,29.99,ENE,69,6.0,22.0,88,0.00,,,0.00,Wunderground v.1.15,2013-05-07 12:33:00,
2013-05-07 07:38:00,60.2,56.0,29.99,ENE,68,7.0,22.0,86,0.00,,,0.00,Wunderground v.1.15,2013-05-07 12:38:00,
2013-05-07 07:44:00,61.1,56.2,29.98,East,92,7.0,22.0,84,0.00,,,0.00,Wunderground v.1.15,2013-05-07 12:44:00,
2013-05-07 17:35:00,72.6,55.5,29.92,NNE,22,10.0,22.0,55,0.00,,,0.00,Wunderground v.1.15,2013-05-07 22:35:00,
2013-05-07 17:41:00,72.6,55.0,29.92,NE,36,10.0,22.0,54,0.00,,,0.00,Wunderground v.1.15,2013-05-07 22:41:00,
2013-05-07 17:46:00,72.4,55.3,29.92,North,5,9.0,10.0,55,0.00,,,0.00,Wunderground v.1.15,2013-05-07 22:46:00,
2013-05-07 17:51:00,72.5,55.4,29.92,NE,34,8.0,22.0,55,0.00,,,0.00,Wunderground v.1.15,2013-05-07 22:51:00,
2013-05-07 17:56:00,72.5,55.4,29.92,NNE,22,8.0,22.0,55,0.00,,,0.00,Wunderground v.1.15,2013-05-07 22:56:00,
2013-05-07 18:01:00,72.4,55.8,29.92,NNE,23,7.0,22.0,56,0.00,,,0.00,Wunderground v.1.15,2013-05-07 23:01:00,
2013-05-07 18:07:00,72.3,55.7,29.92,NNE,26,6.0,22.0,56,0.00,,,0.00,Wunderground v.1.15,2013-05-07 23:07:00,
2013-05-07 18:12:00,72.4,55.3,29.92,NNE,27,9.0,22.0,55,0.00,,,0.00,Wunderground v.1.15,2013-05-07 23:12:00,
2013-05-07 18:17:00,72.4,54.8,29.92,North,11,11.0,22.0,54,0.00,,,0.00,Wunderground v.1.15,2013-05-07 23:17:00,
2013-05-07 18:22:00,72.4,54.8,29.92,North,355,10.0,22.0,54,0.00,,,0.00,Wunderground v.1.15,2013-05-07 23:22:00,
2013-05-07 18:27:00,72.3,55.2,29.92,North,5,9.0,22.0,55,0.00,,,0.00,Wunderground v.1.15,2013-05-07 23:27:00,
2013-05-07 18:33:00,72.3,55.7,29.92,North,5,8.0,22.0,56,0.00,,,0.00,Wunderground v.1.15,2013-05-07 23:33:00,
2013-05-07 18:38:00,72.5,55.9,29.92,NNE,26,7.0,22.0,56,0.00,,,0.00,Wunderground v.1.15,2013-05-07 23:38:00,
2013-05-07 18:43:00,72.3,55.7,29.92,NNE,32,8.0,22.0,56,0.00,,,0.00,Wunderground v.1.15,2013-05-07 23:43:00,
2013-05-07 18:48:00,72.2,55.6,29.92,NNE,25,9.0,22.0,56,0.00,,,0.00,Wunderground v.1.15,2013-05-07 23:48:00,
2013-05-07 18:53:00,72.1,55.5,29.92,NE,40,8.0,22.0,56,0.00,,,0.00,Wunderground v.1.15,2013-05-07 23:53:00,
2013-05-07 18:59:00,71.9,55.8,29.92,NE,35,8.0,22.0,57,0.00,,,0.00,Wunderground v.1.15,2013-05-07 23:59:00,
2013-05-07 19:04:00,71.6,55.6,29.92,NNE,31,8.0,22.0,57,0.00,,,0.00,Wunderground v.1.15,2013-05-08 00:04:00,
2013-05-07 19:09:00,71.5,55.9,29.92,NNE,23,7.0,22.0,58,0.00,,,0.00,Wunderground v.1.15,2013-05-08 00:09:00,
2013-05-07 19:14:00,71.5,55.9,29.92,NNE,20,7.0,22.0,58,0.00,,,0.00,Wunderground v.1.15,2013-05-08 00:14:00,
2013-05-07 19:19:00,71.3,55.8,29.92,NNE,28,7.0,22.0,58,0.00,,,0.00,Wunderground v.1.15,2013-05-08 00:19:00,
2013-05-07 19:24:00,71.1,56.0,29.93,NNE,24,6.0,22.0,59,0.00,,,0.00,Wunderground v.1.15,2013-05-08 00:24:00,
2013-05-07 19:29:00,70.7,56.6,29.93,North,5,6.0,22.0,61,0.00,,,0.00,Wunderground v.1.15,2013-05-08 00:29:00,
2013-05-07 19:34:00,70.5,55.9,29.93,North,5,6.0,22.0,60,0.00,,,0.00,Wunderground v.1.15,2013-05-08 00:34:00,
2013-05-07 19:39:00,70.3,56.2,29.93,North,10,6.0,22.0,61,0.00,,,0.00,Wunderground v.1.15,2013-05-08 00:39:00,
2013-05-07 19:44:00,70.2,56.1,29.93,NE,35,8.0,22.0,61,0.00,,,0.00,Wunderground v.1.15,2013-05-08 00:44:00,
2013-05-07 19:50:00,70.1,56.0,29.93,NE,40,10.0,10.0,61,0.00,,,0.00,Wunderground v.1.15,2013-05-08 00:50:00,
2013-05-07 19:55:00,69.7,56.1,29.93,NNE,32,10.0,22.0,62,0.00,,,0.00,Wunderground v.1.15,2013-05-08 00:55:00,
2013-05-07 20:00:00,69.5,55.9,29.93,NE,37,10.0,10.0,62,0.00,,,0.00,Wunderground v.1.15,2013-05-08 01:00:00,
2013-05-07 20:05:00,69.2,56.1,29.94,NE,34,9.0,22.0,63,0.00,,,0.00,Wunderground v.1.15,2013-05-08 01:05:00,
2013-05-07 20:10:00,68.9,56.2,29.94,NE,47,7.0,7.0,64,0.00,,,0.00,Wunderground v.1.15,2013-05-08 01:10:00,
2013-05-07 20:15:00,68.6,56.4,29.94,ENE,57,6.0,22.0,65,0.00,,,0.00,Wunderground v.1.15,2013-05-08 01:15:00,
2013-05-07 20:21:00,68.5,55.8,29.94,ENE,57,7.0,22.0,64,0.00,,,0.00,Wunderground v.1.15,2013-05-08 01:21:00,
2013-05-07 20:26:00,68.4,55.7,29.95,NE,49,7.0,22.0,64,0.00,,,0.00,Wunderground v.1.15,2013-05-08 01:26:00,
2013-05-07 20:31:00,68.2,56.0,29.95,NNE,30,8.0,22.0,65,0.00,,,0.00,Wunderground v.1.15,2013-05-08 01:31:00,
2013-05-07 20:36:00,67.8,56.0,29.95,NE,35,8.0,22.0,66,0.00,,,0.00,Wunderground v.1.15,2013-05-08 01:36:00,
2013-05-07 20:41:00,67.5,55.7,29.95,NE,40,7.0,22.0,66,0.00,,,0.00,Wunderground v.1.15,2013-05-08 01:41:00,
2013-05-07 20:47:00,67.1,55.8,29.95,NE,43,7.0,22.0,67,0.00,,,0.00,Wunderground v.1.15,2013-05-08 01:47:00,
2013-05-07 20:52:00,66.8,55.9,29.96,NE,39,7.0,22.0,68,0.00,,,0.00,Wunderground v.1.15,2013-05-08 01:52:00,
2013-05-07 20:57:00,66.6,56.1,29.96,NE,40,7.0,22.0,69,0.00,,,0.00,Wunderground v.1.15,2013-05-08 01:57:00,
2013-05-07 21:02:00,66.4,56.3,29.96,NE,40,7.0,22.0,70,0.00,,,0.00,Wunderground v.1.15,2013-05-08 02:02:00,
2013-05-07 21:07:00,66.2,56.1,29.96,NE,40,7.0,22.0,70,0.00,,,0.00,Wunderground v.1.15,2013-05-08 02:07:00,
2013-05-07 21:13:00,66.0,55.9,29.96,NE,40,7.0,22.0,70,0.00,,,0.00,Wunderground v.1.15,2013-05-08 02:13:00,
2013-05-07 21:18:00,65.8,56.1,29.96,NE,37,7.0,22.0,71,0.00,,,0.00,Wunderground v.1.15,2013-05-08 02:18:00,
2013-05-07 21:23:00,65.4,56.1,29.96,NE,37,7.0,22.0,72,0.00,,,0.00,Wunderground v.1.15,2013-05-08 02:23:00,
2013-05-07 21:28:00,65.1,56.2,29.96,NE,37,6.0,22.0,73,0.00,,,0.00,Wunderground v.1.15,2013-05-08 02:28:00,
2013-05-07 21:33:00,65.0,56.1,29.96,NE,37,4.0,22.0,73,0.00,,,0.00,Wunderground v.1.15,2013-05-08 02:33:00,
2013-05-07 21:39:00,65.0,56.1,29.96,NE,37,3.0,22.0,73,0.00,,,0.00,Wunderground v.1.15,2013-05-08 02:39:00,
2013-05-07 21:44:00,65.0,56.1,29.97,NE,37,4.0,22.0,73,0.00,,,0.00,Wunderground v.1.15,2013-05-08 02:44:00,
2013-05-07 21:49:00,65.0,56.5,29.97,NE,37,5.0,22.0,74,0.00,,,0.00,Wunderground v.1.15,2013-05-08 02:49:00,
2013-05-07 21:54:00,64.9,56.4,29.97,NE,37,4.0,22.0,74,0.00,,,0.00,Wunderground v.1.15,2013-05-08 02:54:00,
2013-05-07 21:59:00,64.5,56.4,29.97,NE,37,3.0,22.0,75,0.00,,,0.00,Wunderground v.1.15,2013-05-08 02:59:00,
2013-05-07 22:05:00,64.0,56.3,29.97,NE,37,2.0,22.0,76,0.00,,,0.00,Wunderground v.1.15,2013-05-08 03:05:00,
2013-05-07 22:10:00,63.8,56.4,29.97,NE,37,3.0,22.0,77,0.00,,,0.00,Wunderground v.1.15,2013-05-08 03:10:00,
2013-05-07 22:15:00,63.5,56.5,29.97,NE,37,4.0,22.0,78,0.00,,,0.00,Wunderground v.1.15,2013-05-08 03:15:00,
2013-05-07 22:20:00,63.5,56.5,29.97,NE,37,4.0,4.0,78,0.00,,,0.00,Wunderground v.1.15,2013-05-08 03:20:00,
2013-05-07 22:25:00,63.5,56.9,29.96,NE,37,3.0,22.0,79,0.00,,,0.00,Wunderground v.1.15,2013-05-08 03:25:00,
2013-05-07 22:31:00,63.5,56.9,29.96,NE,37,3.0,22.0,79,0.00,,,0.00,Wunderground v.1.15,2013-05-08 03:31:00,
2013-05-07 22:36:00,63.6,56.6,29.96,NE,37,3.0,22.0,78,0.00,,,0.00,Wunderground v.1.15,2013-05-08 03:36:00,
2013-05-07 22:41:00,63.7,56.7,29.96,NE,37,3.0,22.0,78,0.00,,,0.00,Wunderground v.1.15,2013-05-08 03:41:00,
2013-05-07 22:46:00,63.8,56.8,29.96,NE,37,3.0,22.0,78,0.00,,,0.00,Wunderground v.1.15,2013-05-08 03:46:00,
2013-05-07 22:51:00,63.7,56.7,29.96,NE,37,3.0,22.0,78,0.00,,,0.00,Wunderground v.1.15,2013-05-08 03:51:00,
2013-05-07 22:57:00,63.4,56.8,29.96,NE,37,3.0,22.0,79,0.00,,,0.00,Wunderground v.1.15,2013-05-08 03:57:00,
2013-05-07 23:01:00,63.2,56.6,29.96,NE,37,3.0,22.0,79,0.00,,,0.00,Wunderground v.1.15,2013-05-08 04:01:00,
2013-05-07 23:02:00,63.2,56.6,29.96,NE,37,2.0,22.0,79,0.00,,,0.00,Wunderground v.1.15,2013-05-08 04:02:00,
2013-05-07 23:03:00,63.2,56.6,29.96,NE,37,2.0,22.0,79,0.00,,,0.00,Wunderground v.1.15,2013-05-08 04:03:00,
2013-05-07 23:07:00,63.2,56.6,29.96,NE,37,1.0,22.0,79,0.00,,,0.00,Wunderground v.1.15,2013-05-08 04:07:00,
2013-05-07 23:08:00,63.2,56.6,29.96,NE,37,1.0,22.0,79,0.00,,,0.00,Wunderground v.1.15,2013-05-08 04:08:00,
2013-05-07 23:13:00,63.2,56.6,29.96,NE,37,2.0,22.0,79,0.00,,,0.00,Wunderground v.1.15,2013-05-08 04:13:00,
2013-05-07 23:19:00,62.9,56.3,29.96,NE,37,3.0,22.0,79,0.00,,,0.00,Wunderground v.1.15,2013-05-08 04:19:00,
2013-05-07 23:24:00,62.8,56.5,29.96,NE,37,4.0,22.0,80,0.00,,,0.00,Wunderground v.1.15,2013-05-08 04:24:00,
2013-05-07 23:29:00,62.8,56.5,29.96,NE,37,4.0,22.0,80,0.00,,,0.00,Wunderground v.1.15,2013-05-08 04:29:00,
2013-05-07 23:34:00,62.8,56.5,29.96,NE,37,4.0,22.0,80,0.00,,,0.00,Wunderground v.1.15,2013-05-08 04:34:00,
2013-05-07 23:39:00,62.6,56.3,29.96,NE,37,3.0,22.0,80,0.00,,,0.00,Wunderground v.1.15,2013-05-08 04:39:00,
2013-05-07 23:45:00,62.4,56.5,29.96,NE,52,4.0,22.0,81,0.00,,,0.00,Wunderground v.1.15,2013-05-08 04:45:00,
2013-05-07 23:50:00,62.5,56.6,29.96,NE,53,5.0,22.0,81,0.00,,,0.00,Wunderground v.1.15,2013-05-08 04:50:00,
2013-05-07 23:55:00,62.6,56.7,29.96,ENE,58,5.0,22.0,81,0.00,,,0.00,Wunderground v.1.15,2013-05-08 04:55:00,